.
WxDataArchive / Data Records for 2013-07-30
2013-07-29 July 2013 2013-07-31

Data Records for Tuesday, 30 July 2013

Time	Temp	Chill	HIndex	Humid	Dewpt	 Wind 	HiWind	WindDir	Rain 	Barom 
-----	----	-----	------	-----	-----	------	------	-------	-----	----- 
00:00	58.7	58.7	58.7	86	54.5	0	0	---	0.00	30.174 
00:05	58.7	58.7	58.7	87	54.8	0	0	---	0.00	30.174 
00:10	58.6	58.6	58.6	87	54.7	0	0	---	0.00	30.174 
00:15	58.4	58.4	58.4	87	54.5	0	0	---	0.00	30.173 
00:20	58.3	58.3	58.3	87	54.4	0	0	---	0.00	30.173 
00:25	58.1	58.1	58.1	88	54.6	0	0	---	0.00	30.173 
00:30	58.0	58.0	58.0	88	54.5	0	0	---	0.00	30.174 
00:35	57.8	57.8	57.8	88	54.3	0	0	---	0.00	30.174 
00:40	57.6	57.6	57.6	88	54.1	0	0	---	0.00	30.174 
00:45	57.5	57.5	57.5	89	54.3	0	0	---	0.00	30.182 
00:50	57.5	57.5	57.5	89	54.3	0	0	---	0.00	30.182 
00:55	57.3	57.3	57.3	89	54.1	0	0	---	0.00	30.182 
01:00	57.2	57.2	57.2	89	54.0	0	0	---	0.00	30.179 
01:05	57.0	57.0	57.0	89	53.8	0	0	---	0.00	30.179 
01:10	57.0	57.0	57.0	90	54.1	0	0	---	0.00	30.179 
01:15	56.9	56.9	56.9	90	54.0	0	0	---	0.00	30.180 
01:20	56.9	56.9	56.9	90	54.0	0	0	---	0.00	30.180 
01:25	56.9	56.9	56.9	90	54.0	0	0	---	0.00	30.180 
01:30	56.7	56.7	56.7	90	53.8	0	0	---	0.00	30.185 
01:35	56.6	56.6	56.6	90	53.7	0	0	---	0.00	30.185 
01:40	56.5	56.5	56.5	91	53.9	0	0	---	0.00	30.185 
01:45	56.5	56.5	56.5	91	53.9	0	0	---	0.00	30.187 
01:50	56.3	56.3	56.3	91	53.7	0	0	---	0.00	30.187 
01:55	56.2	56.2	56.2	91	53.6	0	0	---	0.00	30.187 
02:00	56.2	56.2	56.2	91	53.6	0	0	---	0.00	30.186 
02:05	56.0	56.0	56.0	91	53.4	0	0	---	0.00	30.186 
02:10	55.9	55.9	55.9	91	53.3	0	0	---	0.00	30.186 
02:15	55.9	55.9	55.9	91	53.3	0	0	---	0.00	30.186 
02:20	55.7	55.7	55.7	92	53.4	0	0	---	0.00	30.186 
02:25	55.7	55.7	55.7	92	53.4	0	0	---	0.00	30.186 
02:30	55.7	55.7	55.7	92	53.4	0	0	---	0.00	30.184 
02:35	55.6	55.6	55.6	92	53.3	0	0	---	0.00	30.184 
02:40	55.4	55.4	55.4	92	53.1	0	0	---	0.00	30.184 
02:45	55.4	55.4	55.4	92	53.1	0	0	---	0.00	30.183 
02:50	55.4	55.4	55.4	92	53.1	0	0	---	0.00	30.183 
02:55	55.3	55.3	55.3	92	53.0	0	0	---	0.00	30.183 
03:00	55.3	55.3	55.3	92	53.0	0	0	---	0.00	30.181 
03:05	55.3	55.3	55.3	92	53.0	0	0	---	0.00	30.181 
03:10	55.3	55.3	55.3	92	53.0	0	0	---	0.00	30.181 
03:15	55.1	55.1	55.1	92	52.8	0	0	---	0.00	30.184 
03:20	55.1	55.1	55.1	92	52.8	0	0	---	0.00	30.184 
03:25	55.1	55.1	55.1	92	52.8	0	0	---	0.00	30.184 
03:30	55.0	55.0	55.0	92	52.7	0	0	---	0.00	30.187 
03:35	55.0	55.0	55.0	92	52.7	0	0	---	0.00	30.187 
03:40	54.8	54.8	54.8	93	52.8	0	0	---	0.00	30.187 
03:45	54.8	54.8	54.8	93	52.8	0	0	---	0.00	30.187 
03:50	54.7	54.7	54.7	93	52.7	0	0	---	0.00	30.187 
03:55	54.7	54.7	54.7	93	52.7	0	0	---	0.00	30.187 
04:00	54.5	54.5	54.5	93	52.5	0	0	---	0.00	30.188 
04:05	54.4	54.4	54.4	93	52.4	0	0	---	0.00	30.188 
04:10	54.4	54.4	54.4	93	52.4	0	0	---	0.00	30.188 
04:15	54.4	54.4	54.4	93	52.4	0	0	---	0.00	30.188 
04:20	54.4	54.4	54.4	93	52.4	0	0	---	0.00	30.188 
04:25	54.2	54.2	54.2	93	52.2	0	0	---	0.00	30.188 
04:30	54.2	54.2	54.2	93	52.2	0	0	---	0.00	30.187 
04:35	54.2	54.2	54.2	93	52.2	0	0	---	0.00	30.187 
04:40	54.2	54.2	54.2	93	52.2	0	0	---	0.00	30.187 
04:45	54.2	54.2	54.2	93	52.2	0	0	---	0.00	30.183 
04:50	54.1	54.1	54.1	93	52.1	0	0	---	0.00	30.183 
04:55	54.1	54.1	54.1	93	52.1	0	0	---	0.00	30.183 
05:00	54.1	54.1	54.1	93	52.1	0	0	---	0.00	30.183 
05:05	53.9	53.9	53.9	93	51.9	0	0	---	0.00	30.183 
05:10	53.9	53.9	53.9	94	52.2	0	0	---	0.00	30.183 
05:15	53.8	53.8	53.8	94	52.1	0	0	---	0.00	30.187 
05:20	53.8	53.8	53.8	94	52.1	0	0	---	0.00	30.187 
05:25	53.6	53.6	53.6	94	51.9	0	0	---	0.00	30.187 
05:30	53.6	53.6	53.6	94	51.9	0	0	---	0.00	30.187 
05:35	53.5	53.5	53.5	94	51.8	0	0	---	0.00	30.187 
05:40	53.5	53.5	53.5	94	51.8	0	0	---	0.00	30.187 
05:45	53.5	53.5	53.5	94	51.8	0	0	---	0.00	30.188 
05:50	53.5	53.5	53.5	94	51.8	0	0	---	0.00	30.188 
05:55	53.5	53.5	53.5	94	51.8	0	0	---	0.00	30.188 
06:00	53.3	53.3	53.3	94	51.6	0	0	---	0.00	30.188 
06:05	53.3	53.3	53.3	94	51.6	0	0	---	0.00	30.188 
06:10	53.3	53.3	53.3	94	51.6	0	0	---	0.00	30.188 
06:15	53.3	53.3	53.3	94	51.6	0	0	---	0.00	30.190 
06:20	53.3	53.3	53.3	94	51.6	0	0	---	0.00	30.190 
06:25	53.3	53.3	53.3	94	51.6	0	0	---	0.00	30.190 
06:30	53.3	53.3	53.3	94	51.6	0	0	---	0.00	30.190 
06:35	53.3	53.3	53.3	94	51.6	0	0	---	0.00	30.190 
06:40	53.2	53.2	53.2	94	51.5	0	0	---	0.00	30.190 
06:45	53.2	53.2	53.2	94	51.5	0	0	---	0.00	30.190 
06:50	53.3	53.3	53.3	94	51.6	0	0	---	0.00	30.190 
06:55	53.3	53.3	53.3	94	51.6	0	0	---	0.00	30.190 
07:00	53.5	53.5	53.5	94	51.8	0	0	---	0.00	30.191 
07:05	53.6	53.6	53.6	95	52.2	0	0	---	0.00	30.191 
07:10	53.9	53.9	53.9	95	52.5	0	0	---	0.00	30.191 
07:15	54.1	54.1	54.1	95	52.7	0	0	---	0.00	30.199 
07:20	54.4	54.4	54.4	95	53.0	0	0	---	0.00	30.199 
07:25	54.7	54.7	54.7	95	53.3	0	0	---	0.00	30.199 
07:30	55.0	55.0	55.0	95	53.6	0	0	---	0.00	30.201 
07:35	55.4	55.4	55.4	95	54.0	0	0	---	0.00	30.201 
07:40	56.2	56.2	56.2	96	55.1	0	1	292	0.00	30.201 
07:45	56.6	56.6	56.6	96	55.5	0	1	292	0.00	30.203 
07:50	57.3	57.3	57.3	96	56.2	0	0	---	0.00	30.203 
07:55	58.1	58.1	58.1	96	57.0	0	0	---	0.00	30.203 
08:00	58.9	58.9	58.9	95	57.5	0	1	292	0.00	30.203 
08:05	59.2	59.2	59.2	94	57.5	0	1	292	0.00	30.203 
08:10	59.9	59.9	59.9	93	57.9	0	1	292	0.00	30.203 
08:15	60.7	60.7	60.7	92	58.4	0	1	292	0.00	30.204 
08:20	61.2	61.2	61.2	89	57.9	0	2	292	0.00	30.204 
08:25	61.6	61.6	61.6	88	58.0	0	2	292	0.00	30.204 
08:30	62.3	62.3	62.3	87	58.4	0	2	292	0.00	30.209 
08:35	63.1	63.1	63.1	85	58.5	0	1	292	0.00	30.209 
08:40	63.9	63.9	63.9	83	58.6	0	1	292	0.00	30.209 
08:45	64.5	64.5	64.5	80	58.2	0	3	292	0.00	30.209 
08:50	65.2	65.2	65.2	78	58.2	0	2	292	0.00	30.209 
08:55	65.8	65.8	65.8	77	58.4	0	1	292	0.00	30.209 
09:00	66.4	66.4	66.4	75	58.2	0	3	292	0.00	30.210 
09:05	66.6	66.6	66.6	76	58.8	0	1	292	0.00	30.210 
09:10	67.3	67.3	67.3	73	58.3	0	1	292	0.00	30.210 
09:15	68.1	68.1	68.1	71	58.3	0	1	292	0.00	30.212 
09:20	68.9	68.9	68.9	68	57.9	0	1	292	0.00	30.212 
09:25	69.4	69.4	69.4	69	58.8	0	3	292	0.00	30.212 
09:30	69.9	69.9	69.9	68	58.8	0	2	292	0.00	30.211 
09:35	70.4	70.4	70.4	68	59.3	0	1	292	0.00	30.211 
09:40	71.1	71.1	71.1	64	58.3	0	2	292	0.00	30.211 
09:45	71.6	71.6	71.6	63	58.3	0	2	292	0.00	30.204 
09:50	72.0	72.0	72.0	63	58.7	0	2	292	0.00	30.204 
09:55	72.3	72.3	72.3	62	58.5	0	3	292	0.00	30.204 
10:00	72.7	72.7	72.7	61	58.5	0	2	292	0.00	30.199 
10:05	72.8	72.8	72.8	61	58.6	0	2	292	0.00	30.199 
10:10	73.2	73.2	73.2	62	59.4	0	1	292	0.00	30.199 
10:15	73.9	73.9	73.9	59	58.7	0	2	292	0.00	30.196 
10:20	73.5	73.5	73.5	61	59.2	0	3	292	0.00	30.196 
10:25	73.9	73.9	73.9	58	58.2	0	3	292	0.00	30.196 
10:30	74.4	74.4	74.4	58	58.6	0	2	292	0.00	30.196 
10:35	74.7	74.7	74.7	58	58.9	1	3	292	0.00	30.196 
10:40	75.1	75.1	77.6	55	57.8	1	3	292	0.00	30.196 
10:45	75.3	75.3	77.7	56	58.5	1	3	68	0.00	30.190 
10:50	75.4	75.4	77.7	56	58.6	0	2	68	0.00	30.190 
10:55	76.0	76.0	78.1	54	58.1	0	2	68	0.00	30.190 
11:00	76.3	76.3	78.2	53	57.9	1	2	68	0.00	30.189 
11:05	76.5	76.5	78.4	52	57.5	0	2	68	0.00	30.189 
11:10	76.0	76.0	78.1	53	57.6	1	2	68	0.00	30.189 
11:15	75.8	75.8	78.0	55	58.5	0	1	68	0.00	30.194 
11:20	75.8	75.8	78.0	53	57.4	0	2	68	0.00	30.194 
11:25	76.0	76.0	78.1	55	58.6	0	1	68	0.00	30.194 
11:30	76.7	76.7	78.5	54	58.8	0	1	68	0.00	30.189 
11:35	77.6	77.6	79.0	52	58.6	1	3	68	0.00	30.189 
11:40	77.6	77.6	79.0	50	57.5	0	1	68	0.00	30.189 
11:45	77.2	77.2	78.7	49	56.5	0	2	68	0.00	30.183 
11:50	77.2	77.2	78.8	52	58.2	0	4	68	0.00	30.183 
11:55	78.1	78.1	79.4	52	59.0	0	2	68	0.00	30.183 
12:00	78.6	78.6	79.7	50	58.4	0	2	68	0.00	30.181 
12:05	78.6	78.6	79.5	48	57.2	0	3	68	0.00	30.181 
12:10	78.1	78.1	79.2	48	56.8	0	1	68	0.00	30.181 
12:15	77.2	77.2	78.7	48	56.0	0	2	68	0.00	30.183 
12:20	76.5	76.5	78.3	51	57.0	0	2	68	0.00	30.183 
12:25	76.1	76.1	78.1	52	57.2	1	2	68	0.00	30.183 
12:30	75.8	75.8	78.0	50	55.8	0	2	68	0.00	30.185 
12:35	75.4	75.4	77.8	51	56.0	1	2	68	0.00	30.185 
12:40	75.6	75.6	77.9	51	56.2	0	4	68	0.00	30.185 
12:45	76.0	76.0	78.1	51	56.5	1	4	270	0.00	30.183 
12:50	76.8	76.8	78.5	50	56.7	0	2	315	0.00	30.183 
12:55	77.4	77.4	78.8	50	57.3	0	3	68	0.00	30.183 
13:00	77.7	77.7	79.0	50	57.6	0	2	68	0.00	30.179 
13:05	77.6	77.6	78.8	47	55.8	0	2	45	0.00	30.179 
13:10	77.4	77.4	78.8	49	56.7	0	2	45	0.00	30.179 
13:15	77.7	77.7	78.9	47	55.8	0	2	45	0.00	30.178 
13:20	78.5	78.5	79.4	47	56.6	0	3	45	0.00	30.178 
13:25	78.8	78.8	79.5	45	55.6	1	3	45	0.00	30.178 
13:30	78.5	78.5	79.4	47	56.6	1	3	45	0.00	30.170 
13:35	78.5	78.5	79.5	48	57.2	0	2	45	0.00	30.170 
13:40	78.3	78.3	79.2	46	55.8	1	3	68	0.00	30.170 
13:45	78.3	78.3	79.3	48	57.0	0	1	68	0.00	30.165 
13:50	78.5	78.5	79.5	48	57.2	0	2	68	0.00	30.165 
13:55	79.0	79.0	79.8	47	57.0	0	3	68	0.00	30.165 
14:00	79.0	79.0	79.6	45	55.8	1	2	68	0.00	30.166 
14:05	78.5	78.5	79.4	46	56.0	0	2	68	0.00	30.166 
14:10	78.1	78.1	79.2	47	56.2	1	4	90	0.00	30.166 
14:15	78.3	78.3	79.4	50	58.1	1	3	90	0.00	30.161 
14:20	78.5	78.5	79.4	46	56.0	1	3	90	0.00	30.161 
14:25	78.6	78.6	79.5	47	56.7	1	3	90	0.00	30.161 
14:30	78.6	78.6	79.5	47	56.7	1	2	90	0.00	30.153 
14:35	78.3	78.3	79.2	46	55.8	1	4	90	0.00	30.153 
14:40	78.3	78.3	79.3	48	57.0	1	2	90	0.00	30.153 
14:45	78.5	78.5	79.4	46	56.0	1	5	90	0.00	30.157 
14:50	78.5	78.5	79.4	46	56.0	1	4	68	0.00	30.157 
14:55	78.1	78.1	79.1	46	55.6	1	5	68	0.00	30.157 
15:00	78.1	78.1	79.1	46	55.6	0	2	68	0.00	30.151 
15:05	77.9	77.9	79.0	47	56.0	1	3	68	0.00	30.151 
15:10	77.7	77.7	79.0	49	57.0	1	3	90	0.00	30.151 
15:15	78.3	78.3	79.3	48	57.0	0	2	90	0.00	30.150 
15:20	78.6	78.6	79.6	49	57.8	0	2	90	0.00	30.150 
15:25	79.0	79.0	79.8	47	57.0	1	4	112	0.00	30.150 
15:30	79.2	79.2	80.0	48	57.8	0	2	112	0.00	30.147 
15:35	79.2	79.2	79.8	46	56.6	0	3	112	0.00	30.147 
15:40	79.2	79.2	79.8	45	56.0	0	3	158	0.00	30.147 
15:45	79.0	79.0	79.7	46	56.4	0	2	158	0.00	30.141 
15:50	79.0	79.0	79.7	46	56.4	1	4	90	0.00	30.141 
15:55	78.6	78.6	79.4	46	56.1	1	4	90	0.00	30.141 
16:00	78.6	78.6	79.5	48	57.2	0	2	225	0.00	30.134 
16:05	79.0	79.0	79.8	47	57.0	1	3	112	0.00	30.134 
16:10	79.0	79.0	79.7	46	56.4	1	3	112	0.00	30.134 
16:15	78.8	78.8	79.7	48	57.4	1	2	45	0.00	30.133 
16:20	78.6	78.6	79.5	48	57.2	1	3	45	0.00	30.133 
16:25	78.3	78.3	79.4	50	58.1	1	2	68	0.00	30.133 
16:30	77.9	77.9	79.1	48	56.6	1	2	0	0.00	30.133 
16:35	77.9	77.9	79.1	49	57.2	0	2	0	0.00	30.133 
16:40	77.9	77.9	79.1	49	57.2	0	3	0	0.00	30.133 
16:45	77.9	77.9	79.1	48	56.6	1	3	135	0.00	30.130 
16:50	77.9	77.9	79.0	47	56.0	0	2	135	0.00	30.130 
16:55	78.1	78.1	79.2	48	56.8	0	3	135	0.00	30.130 
17:00	77.9	77.9	79.0	47	56.0	1	3	112	0.00	30.126 
17:05	78.1	78.1	79.2	47	56.2	0	2	90	0.00	30.126 
17:10	78.1	78.1	79.2	47	56.2	1	4	90	0.00	30.126 
17:15	78.1	78.1	79.3	49	57.4	0	1	90	0.00	30.125 
17:20	78.1	78.1	79.2	48	56.8	1	4	68	0.00	30.125 
17:25	77.9	77.9	79.0	47	56.0	1	3	68	0.00	30.125 
17:30	77.6	77.6	78.8	47	55.8	1	3	68	0.00	30.123 
17:35	77.4	77.4	78.8	48	56.1	0	2	90	0.00	30.123 
17:40	77.2	77.2	78.7	49	56.5	0	2	90	0.00	30.123 
17:45	77.0	77.0	78.6	50	56.9	0	2	90	0.00	30.122 
17:50	76.8	76.8	78.4	48	55.6	0	2	90	0.00	30.122 
17:55	76.7	76.7	78.3	46	54.3	0	2	90	0.00	30.122 
18:00	76.5	76.5	78.3	47	54.7	0	3	22	0.00	30.122 
18:05	76.3	76.3	78.2	48	55.1	0	2	22	0.00	30.122 
18:10	76.0	76.0	78.1	49	55.4	0	1	22	0.00	30.122 
18:15	76.0	76.0	78.1	50	56.0	0	0	---	0.00	30.121 
18:20	75.8	75.8	78.0	50	55.8	0	2	22	0.00	30.121 
18:25	75.6	75.6	77.9	51	56.2	0	1	22	0.00	30.121 
18:30	75.8	75.8	78.0	53	57.4	0	1	22	0.00	30.116 
18:35	75.8	75.8	78.0	53	57.4	0	1	22	0.00	30.116 
18:40	75.8	75.8	78.0	53	57.4	0	1	22	0.00	30.116 
18:45	75.6	75.6	77.9	54	57.8	0	1	22	0.00	30.115 
18:50	75.6	75.6	77.8	55	58.3	0	0	---	0.00	30.115 
18:55	75.4	75.4	77.7	55	58.1	0	1	22	0.00	30.115 
19:00	75.3	75.3	77.7	56	58.5	0	2	22	0.00	30.114 
19:05	75.1	75.1	77.6	55	57.8	0	0	---	0.00	30.114 
19:10	74.9	74.9	74.9	56	58.1	0	0	---	0.00	30.114 
19:15	74.9	74.9	74.9	56	58.1	0	1	22	0.00	30.107 
19:20	74.9	74.9	74.9	57	58.6	0	1	22	0.00	30.107 
19:25	74.9	74.9	74.9	56	58.1	0	1	22	0.00	30.107 
19:30	74.9	74.9	74.9	56	58.1	0	1	22	0.00	30.103 
19:35	74.7	74.7	74.7	57	58.4	0	0	---	0.00	30.103 
19:40	74.7	74.7	74.7	57	58.4	0	1	22	0.00	30.103 
19:45	74.6	74.6	74.6	57	58.3	0	1	22	0.00	30.106 
19:50	74.6	74.6	74.6	57	58.3	0	0	---	0.00	30.106 
19:55	74.4	74.4	74.4	58	58.6	0	0	---	0.00	30.106 
20:00	74.2	74.2	74.2	58	58.5	0	0	---	0.00	30.111 
20:05	74.2	74.2	74.2	58	58.5	0	0	---	0.00	30.111 
20:10	74.0	74.0	74.0	58	58.3	0	0	---	0.00	30.111 
20:15	73.9	73.9	73.9	58	58.2	0	1	22	0.00	30.103 
20:20	73.7	73.7	73.7	58	58.0	0	0	---	0.00	30.103 
20:25	73.7	73.7	73.7	59	58.5	0	0	---	0.00	30.103 
20:30	73.7	73.7	73.7	58	58.0	0	1	22	0.00	30.102 
20:35	73.5	73.5	73.5	59	58.3	0	0	---	0.00	30.102 
20:40	73.3	73.3	73.3	59	58.1	0	0	---	0.00	30.102 
20:45	73.2	73.2	73.2	59	58.0	0	0	---	0.00	30.103 
20:50	73.0	73.0	73.0	59	57.8	0	0	---	0.00	30.103 
20:55	72.8	72.8	72.8	60	58.1	0	0	---	0.00	30.103 
21:00	72.8	72.8	72.8	61	58.6	0	0	---	0.00	30.104 
21:05	72.7	72.7	72.7	61	58.5	0	0	---	0.00	30.104 
21:10	72.7	72.7	72.7	61	58.5	0	0	---	0.00	30.104 
21:15	72.5	72.5	72.5	61	58.3	0	0	---	0.00	30.100 
21:20	72.3	72.3	72.3	62	58.5	0	0	---	0.00	30.100 
21:25	72.3	72.3	72.3	62	58.5	0	0	---	0.00	30.100 
21:30	72.1	72.1	72.1	63	58.8	0	0	---	0.00	30.101 
21:35	72.0	72.0	72.0	64	59.1	0	0	---	0.00	30.101 
21:40	71.8	71.8	71.8	65	59.4	0	0	---	0.00	30.101 
21:45	71.8	71.8	71.8	65	59.4	0	0	---	0.00	30.098 
21:50	71.6	71.6	71.6	65	59.2	0	0	---	0.00	30.098 
21:55	71.6	71.6	71.6	65	59.2	0	0	---	0.00	30.098 
22:00	71.5	71.5	71.5	66	59.5	0	0	---	0.00	30.097 
22:05	71.3	71.3	71.3	67	59.8	0	0	---	0.00	30.097 
22:10	71.1	71.1	71.1	68	60.0	0	0	---	0.00	30.097 
22:15	70.8	70.8	70.8	67	59.3	0	0	---	0.00	30.098 
22:20	70.6	70.6	70.6	68	59.5	0	0	---	0.00	30.098 
22:25	70.4	70.4	70.4	69	59.7	0	0	---	0.00	30.098 
22:30	70.3	70.3	70.3	69	59.6	0	0	---	0.00	30.099 
22:35	69.9	69.9	69.9	69	59.3	0	0	---	0.00	30.099 
22:40	69.8	69.8	69.8	70	59.6	0	0	---	0.00	30.099 
22:45	69.6	69.6	69.6	71	59.8	0	0	---	0.00	30.097 
22:50	69.3	69.3	69.3	71	59.5	0	0	---	0.00	30.097 
22:55	69.1	69.1	69.1	73	60.1	0	0	---	0.00	30.097 
23:00	68.9	68.9	68.9	73	59.9	0	0	---	0.00	30.097 
23:05	68.6	68.6	68.6	74	60.0	0	0	---	0.00	30.097 
23:10	68.4	68.4	68.4	74	59.8	0	0	---	0.00	30.097 
23:15	68.3	68.3	68.3	75	60.1	0	0	---	0.00	30.094 
23:20	68.1	68.1	68.1	76	60.2	0	0	---	0.00	30.094 
23:25	67.8	67.8	67.8	76	59.9	0	0	---	0.00	30.094 
23:30	67.6	67.6	67.6	77	60.1	0	0	---	0.00	30.093 
23:35	67.4	67.4	67.4	77	59.9	0	0	---	0.00	30.093 
23:40	67.3	67.3	67.3	79	60.6	0	0	---	0.00	30.093 
23:45	66.9	66.9	66.9	79	60.2	0	0	---	0.00	30.091 
23:50	66.8	66.8	66.8	79	60.1	0	0	---	0.00	30.091 
23:55	66.6	66.6	66.6	80	60.2	0	0	---	0.00	30.091 

CoCoRaHS
IN-AL-39
A2 Web Hosting
Creative Commons License
GoDaddy
search engine by freefind advanced

loaded 2018-11-17 12:19:27 • last modified 2010-11-18 10:43:29
Privacy PolicyDisclaimer
• wx.awcolley.com is powered by PmWiki v.2002016 •
• all content (unless otherwise noted) © 2018 A W Colley